Location: Plainartige
(45.6866°N, 1.7993°E)
Time: 03:51:49
(UTC+00:00)

Vanguard 1 - Pass Details

Date: 28 May 2022
Orbit: 649 x 3833 km, 34.2° (Epoch: 06 July)

Event Time Altitude Azimuth Distance (km) Brightness Sun altitude
Exits shadow 23:17:17 30° 160° (SSE) 3,473 12.2 -22.3°
Maximum altitude 23:20:06 32° 141° (SE) 3,633 12.4 -22.4°
Drops below altitude 10° 23:35:14 10° 88° (E) 6,375 14.2 -22.6°
Sets 23:41:42 0° 81° (E) 7,732 14.7 -22.7°
